Retour au catalogue

GP-B

ActifSciencePO
NORAD 28230·PAYLOAD·🇺🇸 United States

Lancé Apr 20, 2004 depuis Vandenberg Space Force Base

Loading…

Prochains Passages (prochaines 24 heures)

TLE

FraisSource: Space-Track

Époque: Sep 14, 2026, 09:59 UTC

1 28230U 04014A   26257.41643996  .00000602  00000-0  71413-4 0  9996
2 28230  89.8512  48.4906 0002260  75.6809 284.4667 14.83374400665576

Suivez GP-B en temps réel avec AllMySat

Download on the App Store